Newport, AR

6:08 AM CST on January 18, 2018 (GMT -0600)
Newport

Weather History for KM19 - February, 2013

Change the Weather History Date:

Tuesday, February 26, 2013

  Actual Average (KBVX) Record (KBVX)
Temperature  
Mean Temperature 42 °F -  
Max Temperature 46 °F 57 °F 55 °F (2017)
Min Temperature 38 °F 33 °F 19 °F (2014)
Degree Days  
Heating Degree Days 23    
Moisture  
Dew Point 38 °F    
Average Humidity 86    
Maximum Humidity 100    
Minimum Humidity 66    
Precipitation  
Precipitation 0.00 in - - ()
Sea Level Pressure  
Sea Level Pressure 29.51 in    
Wind  
Wind Speed - (North)    
Max Wind Speed -    
Max Gust Speed -    
Visibility 10 miles    
Events Rain    
Averages and records for this station are not official NWS values.
T = Trace of Precipitation, MM = Missing Value Source: NWS Daily Summary

Daily Weather History Graph

Daily Weather History Graph

Search for Another Location

Airport or City:

Trip Planner

Search our weather history database for the weather conditions in past years. The results will help you decide how hot, cold, wet, or windy it might be!

Date:

Astronomy

Feb. 26, 2013 Rise Set
Actual Time 6:38 AM CST 5:57 PM CST
Civil Twilight 6:12 AM CST 6:23 PM CST
Nautical Twilight 5:42 AM CST 6:52 PM CST
Astronomical Twilight 5:13 AM CST 7:22 PM CST
Moon 7:09 PM CST (2/26) 6:44 AM CST (2/26)
Length of Visible Light 12h 10m
Length of Day
11h 19m
Full, 99% of the Moon is Illuminated
Feb 26
Full
Mar 4
Last Quarter
Mar 11
New
Mar 19
First Quarter
Mar 27
Full

Hourly Weather History & Observations

Time (CST) Temp. Dew Point Humidity Pressure Visibility Wind Dir Wind Speed Gust Speed Precip Events Conditions
12:11 AM 46.4 °F 46.4 °F 100% - - North - - 0.00 in   Overcast
12:56 AM 45.9 °F 45.9 °F 100% 29.33 in 10.0 mi North - - 0.00 in   Overcast
1:25 AM 44.6 °F 44.6 °F 100% 29.33 in 10.0 mi North - - N/A   Overcast
1:41 AM 44.6 °F 44.6 °F 100% 29.33 in - North - - N/A   Overcast
1:56 AM 43.9 °F 43.9 °F 100% 29.34 in 10.0 mi North - - N/A   Overcast
2:56 AM 43.9 °F 43.9 °F 100% 29.34 in 10.0 mi North - - N/A   Overcast
3:05 AM 44.6 °F 44.6 °F 100% 29.34 in 10.0 mi North - - N/A   Overcast
3:56 AM 45.0 °F 43.9 °F 96% - 10.0 mi North - - N/A   Overcast
4:09 AM 44.6 °F 44.6 °F 100% 29.35 in - North - - N/A   Overcast
4:56 AM 43.9 °F 41.9 °F 93% 29.36 in 10.0 mi North - - N/A   Mostly Cloudy
5:10 AM 44.6 °F 42.8 °F 93% 29.36 in - North - - N/A   Overcast
6:24 AM 44.6 °F 42.8 °F 93% 29.37 in 10.0 mi North - - N/A   Overcast
6:47 AM 44.6 °F 41.0 °F 87% - - North - - N/A   Mostly Cloudy
6:56 AM 43.9 °F 41.0 °F 90% 29.38 in 10.0 mi North - - N/A   Overcast
7:38 AM 42.8 °F 41.0 °F 93% - - North - - N/A   Overcast
7:56 AM 43.0 °F 39.9 °F 89% 29.41 in 10.0 mi North - - N/A   Overcast
8:31 AM 42.8 °F 39.2 °F 87% 29.42 in - North - - 0.00 in   Overcast
8:38 AM 42.8 °F 39.2 °F 87% 29.42 in - North - - 0.00 in   Overcast
8:56 AM 41.9 °F 39.9 °F 93% 29.43 in 10.0 mi North - - 0.00 in   Overcast
9:56 AM 43.0 °F 37.9 °F 82% - - North - - 0.00 in   Unknown
10:33 AM 42.8 °F 37.4 °F 81% - - North - - 0.00 in Rain Light Rain
10:56 AM 41.9 °F 36.9 °F 82% 29.47 in - North - - N/A   Unknown
11:56 AM 39.9 °F 37.9 °F 93% 29.51 in 6.0 mi North - - N/A Rain Light Rain
12:56 PM 41.0 °F 36.9 °F 85% 29.52 in - North - - N/A Rain Light Rain
1:02 PM 39.2 °F 37.4 °F 93% 29.52 in 10.0 mi North - - 0.00 in Rain Light Rain
1:30 PM 42.8 °F 37.4 °F 81% 29.53 in 10.0 mi North - - 0.00 in   Overcast
1:56 PM 41.9 °F 34.9 °F 76% 29.55 in 10.0 mi North - - 0.00 in   Mostly Cloudy
2:56 PM 43.0 °F 34.0 °F 71% 29.57 in - North - - N/A Rain Light Rain
3:56 PM 41.9 °F 31.1 °F 66% 29.61 in - North - - N/A   Unknown
4:56 PM 41.0 °F 32.0 °F 70% 29.65 in - North - - N/A   Overcast
5:56 PM 39.9 °F 31.1 °F 71% 29.70 in - North - - N/A   Unknown
6:56 PM 39.9 °F 31.1 °F 71% 29.73 in 10.0 mi North - - N/A   Overcast
7:56 PM 39.9 °F 32.0 °F 73% 29.76 in - North - - N/A   Overcast
8:56 PM 38.8 °F 32.0 °F 76% 29.79 in - North - - N/A   Unknown
9:56 PM 38.8 °F 32.0 °F 76% - - North - - N/A   Overcast
10:34 PM 39.2 °F 30.2 °F 70% 29.83 in - North - - N/A   Overcast
10:56 PM 38.8 °F 31.1 °F 74% - 10.0 mi North - - N/A   Overcast
11:34 PM 39.2 °F 30.2 °F 70% 29.84 in - North - - N/A   Overcast
11:56 PM 38.8 °F 31.1 °F 74% 29.86 in 10.0 mi North - - N/A   Overcast